Weather History for Adak, AK

Change the Weather History Date:

Sunday, November 4, 2012

  Actual Average Record
Temperature  
Mean Temperature 37 °F -  
Max Temperature 39 °F 44 °F 50 °F (1969)
Min Temperature 35 °F 35 °F 27 °F (1960)
Degree Days  
Heating Degree Days 28    
Moisture  
Dew Point 28 °F    
Average Humidity 70    
Maximum Humidity 81    
Minimum Humidity 56    
Precipitation  
Precipitation 0.00 in - - ()
Sea Level Pressure  
Sea Level Pressure 30.21 in    
Wind  
Wind Speed 12 mph (NNE)    
Max Wind Speed 17 mph    
Max Gust Speed 24 mph    
Visibility 10 miles    
Events      
Averages and records for this station are not official NWS values.
T = Trace of Precipitation, MM = Missing Value Source: NWS Daily Summary

Daily Weather History Graph

Daily Weather History Graph

Search for Another Location

Airport:

Trip Planner

Search our weather history database for the weather conditions in past years. The results will help you decide how hot, cold, wet, or windy it might be!

Date:

Astronomy

Nov. 04, 2012 Rise Set
Actual Time 8:47 AM HAST 6:11 PM HAST
Civil Twilight 8:11 AM HAST 6:47 PM HAST
Nautical Twilight 7:31 AM HAST 7:27 PM HAST
Astronomical Twilight 6:52 AM HAST 8:06 PM HAST
Moon 10:59 PM HAST (11/4) 1:47 PM HAST (11/4)
Length of Visible Light 10h 35m
Length of Day
9h 23m
Waning Gibbous, 70% of the Moon is Illuminated
Nov 4
Waning Gibbous
Nov 6
Last Quarter
Nov 13
New
Nov 20
First Quarter
Nov 28
Full

Hourly Weather History & Observations

Time (HAST) Temp. Windchill Dew Point Humidity Pressure Visibility Wind Dir Wind Speed Gust Speed Precip Events Conditions
12:16 AM 37.4 °F 30.3 °F 26.6 °F 65% 30.15 in 10.0 mi NNE 10.4 mph 17.3 mph N/A   Overcast
12:36 AM 37.4 °F 27.8 °F 26.6 °F 65% 30.15 in 10.0 mi NNE 17.3 mph 20.7 mph N/A   Overcast
12:56 AM 37.4 °F 28.5 °F 24.8 °F 60% 30.16 in 10.0 mi NNE 15.0 mph 20.7 mph N/A   Overcast
1:16 AM 37.4 °F 28.5 °F 26.6 °F 65% 30.16 in 10.0 mi NNE 15.0 mph 19.6 mph N/A   Overcast
1:36 AM 37.4 °F 29.3 °F 26.6 °F 65% 30.16 in 10.0 mi NNE 12.7 mph 20.7 mph N/A   Overcast
1:56 AM 37.4 °F 28.9 °F 26.6 °F 65% 30.16 in 10.0 mi NNE 13.8 mph 20.7 mph N/A   Overcast
1:16 AM 37.4 °F 29.8 °F 26.6 °F 65% 30.17 in 10.0 mi NNE 11.5 mph - N/A   Overcast
1:36 AM 37.4 °F 28.5 °F 26.6 °F 65% 30.17 in 10.0 mi North 15.0 mph - N/A   Overcast
1:56 AM 37.4 °F 28.9 °F 26.6 °F 65% 30.17 in 10.0 mi NNE 13.8 mph 18.4 mph N/A   Overcast
2:16 AM 37.4 °F 29.8 °F 26.6 °F 65% 30.17 in 10.0 mi NNE 11.5 mph - N/A   Overcast
2:36 AM 35.6 °F 27.5 °F 26.6 °F 70% 30.17 in 10.0 mi NNE 11.5 mph - N/A   Overcast
2:56 AM 37.4 °F 29.8 °F 26.6 °F 65% 30.17 in 10.0 mi NNE 11.5 mph 16.1 mph N/A   Overcast
3:16 AM 35.6 °F 28.0 °F 26.6 °F 70% 30.17 in 10.0 mi NNE 10.4 mph - N/A   Overcast
3:36 AM 37.4 °F 28.2 °F 28.4 °F 70% 30.17 in 10.0 mi North 16.1 mph 19.6 mph N/A   Overcast
3:56 AM 35.6 °F 27.5 °F 28.4 °F 75% 30.18 in 10.0 mi North 11.5 mph - N/A   Overcast
4:16 AM 37.4 °F 28.2 °F 28.4 °F 70% 30.18 in 10.0 mi NNE 16.1 mph 24.2 mph N/A   Overcast
4:36 AM 37.4 °F 28.5 °F 26.6 °F 65% 30.19 in 10.0 mi North 15.0 mph 20.7 mph N/A   Overcast
4:56 AM 37.4 °F 29.3 °F 24.8 °F 60% 30.18 in 10.0 mi North 12.7 mph - N/A   Overcast
5:16 AM 37.4 °F 28.5 °F 26.6 °F 65% 30.18 in 10.0 mi North 15.0 mph 20.7 mph N/A   Overcast
5:36 AM 35.6 °F 29.2 °F 30.2 °F 81% 30.19 in 10.0 mi North 8.1 mph - N/A   Overcast
5:56 AM 35.6 °F 27.1 °F 28.4 °F 75% 30.18 in 10.0 mi North 12.7 mph - N/A   Overcast
6:16 AM 37.4 °F 27.8 °F 24.8 °F 60% 30.19 in 10.0 mi North 17.3 mph 21.9 mph N/A   Overcast
6:36 AM 37.4 °F 29.3 °F 24.8 °F 60% 30.19 in 10.0 mi North 12.7 mph 18.4 mph N/A   Overcast
6:56 AM 37.4 °F 28.9 °F 30.2 °F 75% 30.19 in 10.0 mi North 13.8 mph 23.0 mph N/A   Overcast
7:16 AM 35.6 °F 26.2 °F 28.4 °F 75% 30.19 in 10.0 mi North 15.0 mph 18.4 mph N/A   Overcast
7:36 AM 35.6 °F 27.5 °F 28.4 °F 75% 30.19 in 10.0 mi North 11.5 mph 20.7 mph N/A   Overcast
7:56 AM 35.6 °F 28.0 °F 28.4 °F 75% 30.19 in 10.0 mi NNW 10.4 mph - N/A   Overcast
8:16 AM 35.6 °F 25.9 °F 28.4 °F 75% 30.19 in 10.0 mi NNE 16.1 mph 20.7 mph N/A   Overcast
8:36 AM 35.6 °F 28.0 °F 28.4 °F 75% 30.20 in 10.0 mi NNE 10.4 mph - N/A   Overcast
8:56 AM 35.6 °F 26.6 °F 28.4 °F 75% 30.20 in 10.0 mi North 13.8 mph 17.3 mph N/A   Overcast
9:16 AM 35.6 °F 27.5 °F 30.2 °F 81% 30.20 in 10.0 mi NNE 11.5 mph - N/A   Overcast
9:36 AM 35.6 °F 28.0 °F 30.2 °F 81% 30.21 in 10.0 mi North 10.4 mph - N/A   Overcast
9:56 AM 35.6 °F 27.1 °F 30.2 °F 81% 30.21 in 10.0 mi North 12.7 mph - N/A   Overcast
10:16 AM 37.4 °F 30.3 °F 30.2 °F 75% 30.21 in 10.0 mi NNE 10.4 mph - N/A   Overcast
10:36 AM 35.6 °F 28.0 °F 30.2 °F 81% 30.21 in 10.0 mi NNE 10.4 mph - N/A   Overcast
10:56 AM 37.4 °F 28.9 °F 28.4 °F 70% 30.21 in 10.0 mi North 13.8 mph - N/A   Overcast
11:16 AM 37.4 °F 30.3 °F 28.4 °F 70% 30.22 in 10.0 mi North 10.4 mph - N/A   Overcast
11:36 AM 37.4 °F 29.8 °F 28.4 °F 70% 30.22 in 10.0 mi North 11.5 mph - N/A   Overcast
11:56 AM 37.4 °F 28.5 °F 30.2 °F 75% 30.23 in 10.0 mi North 15.0 mph 19.6 mph N/A   Overcast
12:16 PM 37.4 °F 30.3 °F 28.4 °F 70% 30.23 in 10.0 mi North 10.4 mph - N/A   Overcast
12:36 PM 39.2 °F 31.2 °F 30.2 °F 70% 30.23 in 10.0 mi North 13.8 mph - N/A   Overcast
12:56 PM 37.4 °F 29.3 °F 30.2 °F 75% 30.23 in 10.0 mi North 12.7 mph - N/A   Overcast
1:16 PM 37.4 °F 30.3 °F 30.2 °F 75% 30.24 in 10.0 mi NNW 10.4 mph - N/A   Overcast
1:36 PM 37.4 °F 31.4 °F 28.4 °F 70% 30.24 in 10.0 mi North 8.1 mph - N/A   Overcast
1:56 PM 39.2 °F 32.0 °F 30.2 °F 70% 30.23 in 10.0 mi North 11.5 mph - N/A   Overcast
2:16 PM 39.2 °F 33.0 °F 30.2 °F 70% 30.23 in 10.0 mi North 9.2 mph - N/A   Overcast
2:36 PM 39.2 °F 32.0 °F 28.4 °F 65% 30.23 in 10.0 mi North 11.5 mph - N/A   Overcast
2:56 PM 37.4 °F 31.4 °F 26.6 °F 65% 30.23 in 10.0 mi North 8.1 mph - N/A   Overcast
3:16 PM 39.2 °F 34.2 °F 28.4 °F 65% 30.23 in 10.0 mi North 6.9 mph - N/A   Overcast
3:36 PM 39.2 °F 33.0 °F 26.6 °F 61% 30.23 in 10.0 mi NNE 9.2 mph - N/A   Overcast
3:56 PM 39.2 °F 33.0 °F 24.8 °F 56% 30.23 in 10.0 mi NNE 9.2 mph - N/A   Overcast
4:16 PM 37.4 °F 30.8 °F 28.4 °F 70% 30.23 in 10.0 mi NNE 9.2 mph - N/A   Overcast
4:36 PM 37.4 °F 29.8 °F 28.4 °F 70% 30.24 in 10.0 mi North 11.5 mph - N/A   Overcast
4:56 PM 35.6 °F 29.9 °F 30.2 °F 81% 30.24 in 10.0 mi NNW 6.9 mph - N/A   Overcast
5:16 PM 35.6 °F 32.8 °F 30.2 °F 81% 30.24 in 10.0 mi North 3.5 mph - N/A   Overcast
5:36 PM 37.4 °F 32.8 °F 28.4 °F 70% 30.24 in 10.0 mi NNE 5.8 mph - N/A   Overcast
5:56 PM 37.4 °F 30.3 °F 28.4 °F 70% 30.24 in 10.0 mi North 10.4 mph - N/A   Overcast
6:16 PM 37.4 °F 31.4 °F 28.4 °F 70% 30.24 in 10.0 mi NNE 8.1 mph - N/A   Overcast
6:36 PM 37.4 °F 31.4 °F 26.6 °F 65% 30.24 in 10.0 mi NNE 8.1 mph - N/A   Overcast
6:56 PM 37.4 °F 30.3 °F 26.6 °F 65% 30.25 in 10.0 mi NNE 10.4 mph - N/A   Overcast
7:16 PM 37.4 °F 31.4 °F 28.4 °F 70% 30.25 in 10.0 mi NNE 8.1 mph - N/A   Overcast
7:36 PM 37.4 °F 32.1 °F 28.4 °F 70% 30.26 in 10.0 mi NNE 6.9 mph - N/A   Overcast
7:56 PM 35.6 °F 29.9 °F 28.4 °F 75% 30.26 in 10.0 mi NNE 6.9 mph - N/A   Overcast
8:16 PM 37.4 °F 30.8 °F 30.2 °F 75% 30.26 in 10.0 mi NNE 9.2 mph - N/A   Overcast
8:36 PM 37.4 °F 32.1 °F 28.4 °F 70% 30.26 in 10.0 mi NE 6.9 mph - N/A   Overcast
8:56 PM 37.4 °F 30.8 °F 28.4 °F 70% 30.27 in 10.0 mi NE 9.2 mph - N/A   Overcast
9:16 PM 37.4 °F 31.4 °F 30.2 °F 75% 30.27 in 10.0 mi NNE 8.1 mph - N/A   Overcast
9:36 PM 35.6 °F 30.7 °F 28.4 °F 75% 30.27 in 10.0 mi NNE 5.8 mph - N/A   Overcast
9:56 PM 35.6 °F 29.9 °F 28.4 °F 75% 30.27 in 10.0 mi NNE 6.9 mph - N/A   Overcast
10:16 PM 37.4 °F 31.4 °F 30.2 °F 75% 30.27 in 10.0 mi NE 8.1 mph - N/A   Overcast
10:36 PM 37.4 °F 32.1 °F 30.2 °F 75% 30.27 in 10.0 mi NNE 6.9 mph - N/A   Overcast
10:56 PM 35.6 °F 29.9 °F 28.4 °F 75% 30.28 in 10.0 mi NNE 6.9 mph - N/A   Overcast